www.pogodaiklimat.ru

Погода и климат >> Архив погоды >> Малайзия >> Кота-Кинабалу


ПОГОДА в Кота-Кинабалу

  • Прогноз погоды в Кота-Кинабалу
  • Монитор погоды в Кота-Кинабалу

АРХИВ ПОГОДЫ в Кота-Кинабалу

Время (UTC), дата Ветер
(напр.,м/с)
 
Видим.   Явления Облачность Т
(С)
Тd
(С)
f
(%)
Тe
(С)
Тes
(С)
Комфортность P
(гПа)
Po
(гПа)
Тmin
(С)
Tmax
(С)
R
(мм)
R24
(мм)
S
(см)
00 13.08 В 3 18 км мгла 9/1 50 м
[Cu Sc Ac lent Cs]
+27.9 +23.1 75 +37 +39 очень
душно
1010.9 1010.6 +26.0
03 13.08 З 2 15 км мгла 9 баллов +32.1 +25.9 70 +48 +49 опасность
перегрева
1010.9 1010.6
06 13.08 З 3 15 км мгла 9/1 450 м
[Cu Sc Ac trans Cs]
+33.3 +26.6 68 +50 +58 опасность
перегрева
1008.7 1008.4
09 13.08 З 2 15 км мгла 9/1 450 м
[Cu Sc Ac trans Ci sp]
+33.8 +25.1 61 +48 +49 опасность
перегрева
1008.0 1007.7
12 13.08 В 2 15 км зарница 9/3 450 м
[Cb cap Ac trans Ci sp]
+29.1 +23.8 73 +40 +40 очень
душно
1010.2 1009.9 +34.0
15 13.08 ЮВ 3 15 км мгла 9/1 420 м
[Cu Sc Ac lent Cs]
+27.6 +21.6 70 +35 +35 очень
душно
1011.6 1011.3
18 13.08 В 3 15 км мгла 9/1 420 м
[Cu Sc Ac lent Cs]
+26.6 +23.8 85 +37 +37 очень
душно
1010.6 1010.3
21 13.08 В 3 15 км мгла 9/1 420 м
[Cu Sc Ac lent Cs]
+25.2 +20.9 77 +32 +32 очень
душно
1010.4 1010.1
00 14.08 В 3 16 км мгла 9/3 50 м
[Cu Sc Ac lent Cs]
+28.1 +22.3 71 +37 +38 очень
душно
1011.5 1011.2 +24.9
03 14.08 СЗ 2 16 км мгла 9/3 420 м
[Cu Sc Ac lent Cs]
+32.6 +26.6 71 +50 +58 опасность
перегрева
1011.0 1010.7
06 14.08 З 4 15 км мгла 9/3 420 м
[Cu Sc Ac lent Cs]
+33.3 +26.8 69 +51 +56 опасность
перегрева
1008.6 1008.3
09 14.08 штиль 0 15 км мгла 9/3 420 м
[Cu Sc Ac lent Cs]
+31.2 +24.8 69 +44 +46 опасность
перегрева
1008.2 1007.9
12 14.08 ЮВ 2 15 км мгла 9/1 450 м
[Cu Sc Ac lent Cs]
+29.2 +25.4 80 +43 +43 опасность
перегрева
1010.1 1009.8 +33.6
15 14.08 ЮВ 3 10 км слаб. дождь 9/3 450 м
[Cu Sc Ac lent Cs]
+26.7 +25.3 92 +39 +39 очень
душно
1012.4 1012.1
18 14.08 В 4 18 км в посл. час дождь 9/3 450 м
[Cu Sc Ac lent Cs]
+25.2 +23.7 91 +34 +34 очень
душно
1010.5 1010.2 4
21 14.08 В 3 18 км 9/3 450 м
[Cu Sc Ac lent Cs]
+24.0 +21.5 86 +31 +31 очень
душно
1010.7 1010.4
00 15.08 ЮВ 2 20 км мгла 9/1 50 м
[Cu Sc Ac lent Cs]
+27.1 +22.7 77 +36 +38 очень
душно
1011.7 1011.4 +24.9 4
03 15.08 ЮЗ 3 18 км мгла 9/1 420 м
[Cu Sc Ac lent Cs]
+31.9 +25.7 70 +47 +56 опасность
перегрева
1012.1 1011.8
06 15.08 З 4 16 км мгла 9/3 420 м
[Cb cap Ac lent Cs]
+33.1 +26.6 69 +50 +55 опасность
перегрева
1009.4 1009.1
09 15.08 З 3 16 км мгла 9/3 420 м
[Cu Sc Ac lent Cs]
+31.4 +26.1 74 +47 +48 опасность
перегрева
1008.7 1008.4
12 15.08 ЮВ 3 16 км зарница 9/5 1500 м
[Cb cap Ac lent Cs]
+28.8 +24.5 78 +41 +41 опасность
перегрева
1010.2 1009.9 +29.0
15 15.08 В 3 8000 м слаб. дождь 10/5 420 м
[Cu Sc Ac lent Cs]
+26.7 +25.0 90 +38 +38 очень
душно
1012.1 1011.8
18 15.08 В 3 8000 м слаб. дождь 10/5 420 м
[Cu Sc Ac lent Cs]
+25.1 +23.6 91 +34 +34 очень
душно
1011.3 1011.0 3
21 15.08 Ю 3 18 км в посл. час дождь 9/5 420 м
[Cu Sc Ac lent Cs]
+25.1 +23.9 93 +34 +34 очень
душно
1011.3 1011.0
00 16.08 ЮВ 1 20 км мгла {дождь} 9/4 50 м
[Cu Sc Ac lent Cs]
+26.6 +23.8 85 +37 +38 очень
душно
1011.8 1011.5 +24.9 5
03 16.08 З 3 22 км мгла 9/3 420 м
[Cu Sc Ac lent Cs]
+30.4 +24.7 72 +43 +50 опасность
перегрева
1011.3 1011.0
06 16.08 З 2 22 км мгла 9/4 420 м
[Cb cap Ac lent Ci sp]
+32.2 +24.9 65 +45 +52 опасность
перегрева
1009.3 1009.0
09 16.08 С 2 20 км гроза без осадков 9/5 420 м
[Cb cap Ac lent Cs]
+30.3 +24.9 73 +43 +44 опасность
перегрева
1009.0 1008.7
12 16.08 В 3 18 км {гроза} 9/3 420 м
[Cu Sc Ac lent Cs]
+27.6 +23.5 78 +37 +37 очень
душно
1010.5 1010.2 +32.8
15 16.08 ЮВ 2 18 км 9/3 420 м
[Cu Sc Ac lent Cs]
+27.0 +23.3 80 +36 +36 очень
душно
1012.2 1011.9
18 16.08 В 3 8000 м слаб. дождь 10/5 400 м
[Cu Sc Ac lent Cs]
+24.7 +23.4 92 +33 +33 очень
душно
1011.6 1011.3 2
21 16.08 В 3 18 км {дождь} 9/3 420 м
[Cu Sc Ac lent Cs]
+24.4 +22.2 88 +32 +32 очень
душно
1011.3 1011.0
00 17.08 В 3 22 км мгла {дождь} 9/1 50 м
[Cu Sc Ac lent Cs]
+27.2 +22.6 76 +36 +38 очень
душно
1012.4 1012.1 +24.4 2
03 17.08 З 2 22 км мгла 9/1 450 м
[Cu Sc Ac trans Ci sp]
+30.9 +23.7 66 +42 +53 опасность
перегрева
1012.1 1011.8
06 17.08 СЗ 4 22 км мгла 9/3 450 м
[Cb cap Ac lent Ci sp]
+32.3 +24.4 63 +45 +49 опасность
перегрева
1009.6 1009.3
09 17.08 СВ 1 22 км в посл. час дождь 9/1 420 м
[Cu Sc Ac lent Cs]
+30.3 +24.7 72 +43 +45 опасность
перегрева
1009.1 1008.8
12 17.08 В 2 10 км слаб. дождь 9/4 420 м
[Cu Sc Ac lent Cs]
+27.9 +26.0 89 +42 +42 опасность
перегрева
1011.1 1010.8 +33.5 0.4
15 17.08 В 2 18 км 9/4 420 м
[Cu Sc Ac lent Cs]
+26.6 +24.0 86 +37 +37 очень
душно
1012.6 1012.3
18 17.08 В 3 18 км {дождь} 9/3 420 м
[Cu Sc Ac lent Cs]
+25.4 +23.1 87 +34 +34 очень
душно
1011.9 1011.6 0.2
21 17.08 В 2 18 км 9/3 420 м
[Cu Sc Ac lent Cs]
+25.3 +23.0 87 +34 +34 очень
душно
1011.1 1010.8
00 18.08 В 2 22 км мгла 9/1 50 м
[Cu Sc Ac lent Cs]
+27.1 +23.4 80 +37 +39 очень
душно
1012.1 1011.8 +25.2 0.6
03 18.08 З 3 22 км мгла 9/1 420 м
[Cu Sc Ac trans Cs]
+31.8 +25.0 67 +45 +54 опасность
перегрева
1012.0 1011.7
06 18.08 СЗ 4 22 км мгла 9/3 420 м
[Cu Sc Ac lent Cs]
+32.9 +25.2 64 +47 +52 опасность
перегрева
1009.4 1009.1
09 18.08 СВ 2 22 км мгла 9/4 420 м
[Cb cap Ac lent Cs]
+30.7 +23.6 66 +42 +43 опасность
перегрева
1009.2 1008.9
12 18.08 ЮВ 3 18 км 9/3 420 м
[Cu Sc Ac lent Cs]
+26.7 +23.7 84 +37 +37 очень
душно
1011.0 1010.7 +33.4
15 18.08 В 3 18 км 9/3 420 м
[Cu Sc Ac lent Cs]
+26.4 +22.8 81 +35 +35 очень
душно
1012.0 1011.7
18 18.08 В 3 18 км зарница 9/3 420 м
[Cb cap Ac lent Cs]
+25.5 +22.8 85 +34 +34 очень
душно
1010.6 1010.3
21 18.08 Ю 4 18 км 9/3 420 м
[Cu Sc Ac lent Cs]
+26.3 +23.4 84 +36 +36 очень
душно
1011.0 1010.7
00 19.08 ЮВ 2 17 км мгла 9/1 450 м
[Cu Sc Ac lent Cs]
+28.0 +23.4 76 +38 +40 очень
душно
1011.0 1010.7 +25.1
03 19.08 З 3 17 км мгла 9/1 450 м
[Cu Sc Ac lent Ci sp]
+31.5 +25.5 71 +46 +54 опасность
перегрева
1009.8 1009.5
06 19.08 З 4 20 км мгла 9/3 450 м
[Cb cap Ac trans Ci sp]
+32.9 +25.1 64 +47 +52 опасность
перегрева
1007.3 1007.0
09 19.08 СЗ 3 20 км мгла 9/3 450 м
[Cb cap Ac lent Cs]
+32.3 +25.3 67 +47 +48 опасность
перегрева
1006.7 1006.4
12 19.08 С 1 18 км зарница 9/4 420 м
[Cb cap Ac lent Cs]
+29.4 +24.3 74 +41 +41 опасность
перегрева
1009.4 1009.1 +33.6
15 19.08 В 2 18 км 9/3 420 м
[Cu Sc Ac lent Cs]
+28.1 +23.9 78 +39 +39 очень
душно
1010.8 1010.5
18 19.08 В 3 18 км зарница 9/4 420 м
[Cb cap Ac lent Cs]
+26.9 +23.3 81 +36 +36 очень
душно
1009.6 1009.3
21 19.08 Ю 3 18 км в посл. час гроза 9/5 420 м
[Cb cap Ac lent Cs]
+27.0 +23.3 80 +36 +36 очень
душно
1009.5 1009.2

 

Местоположение метеостанции Кота-Кинабалу (Малайзия): широта 5.93 долгота 116.05 высота над уровнем моря 3 м.

В архиве по умолчанию представлена погода в Кота-Кинабалу за последнюю неделю. Архивные данные за месяц целиком и за предыдущие месяцы, начиная с января 2011 года, Вы можете получить, выбрав интересующий диапазон дат из раскрывающегося списка и нажав кнопку "Ввод!".


*Определитесь, кто Вы:
робот инопланетянин человек

Внимание! Время в таблицах - всемирное. Для получения местного времени необходимо прибавить поправку, которая равна 8 ч.

Смотрите также архив погоды в соседних городах и на ближайших метеорологических станциях:

Погода в Лабуане (Малайзия) (113 км)
Погода в Брунее (Бруней) (167 км)
Погода в Сандакане (Малайзия) (222 км)
Погода в Лонгбаване (Индонезия) (248 км)
Погода в Тавау (Малайзия) (274 км)
Погода в Мири (Малайзия) (290 км)
Погода в Таракане (Индонезия) (334 км)
Погода в Танджунгселоре (Индонезия) (371 км)
Погода в Танджунгредепе (Индонезия) (451 км)
Погода в Бинталу (Малайзия) (452 км)

Пояснения к столбцам:

Ветер - указаны скорость ветра в м/с - средняя за 10 мин, порывы в срок и между сроками (в фигурных скобках) и направление, откуда дует ветер: С - северный, СВ - северо-восточный, В - восточный, ЮВ - юго-восточный, Ю - южный, ЮЗ - юго-западный, З - западный, СЗ - северо-западный.
Видимость - горизонтальная дальность видимости в метрах или километрах. При видимости от 1 до 10 км при отсутствии осадков обычно наблюдается дымка, при ухудшении видимости до 1 км и менее - туман. В сухую погоду видимость может ухудшаться дымом, пылью или мглою.
Явления - указаны атмосферные явления, наблюдавшиеся в срок или в последний час перед сроком; фигурными скобками обозначены явления, наблюдавшиеся между сроками (за 1-3 часа до срока); квадратными скобками обозначены град или гололедные отложения с указанием их диаметра в мм.
Облачность - указаны через наклонную черту общая и нижняя облачность в баллах и высота нижней границы облаков в метрах; квадратными скобками обозначены формы облаков: Ci - перистые, Cs - перисто-слоистые, Cc - перисто-кучевые, Ac - высококучевые, As - высокослоистые, Sc - слоисто-кучевые, Ns - слоисто-дождевые, Cu - кучевые, Cb - кучево-дождевые. Подробнее классификацию облаков см. в Атласе облаков (PDF).
T - Температура воздуха - температура, измеренная на высоте 2 м над землей.
Td - Температура точки росы - температура, при понижении до которой содержащийся в воздухе водяной пар достигнет насыщения.
f - Относительная влажность воздуха - влажноcть воздуха, измеренная на высоте 2 м над землей.
Te - Эффективная температура - температура, которую ощущает одетый по сезону человек в тени. Характеристика душности погоды. При расчете учитывается влияние влажности воздуха и скорости ветра на теплоощущения человека.
Tes - Эффективная температура на солнце - температура, которую ощущает человек, с поправкой на солнечный нагрев. Характеристика знойности погоды. Зависит от высоты солнца над горизонтом, облачности и скорости ветра. Ночью, в пасмурную погоду, а также при ветре 12 м/с и более поправка равна нулю.
P - Атмосферное давление - приведенное к уровню моря атмосферное давление.
Po - Атмосферное давление - измеренное на уровне метеостанции атмосферное давление.
Tmin - Минимальная температура - минимум температуры воздуха на высоте 2 м над землей.
Tmax - Максимальная температура - максимум температуры воздуха на высоте 2 м над землей.
R - Количество осадков - Количество выпавших осадков за период времени, мм. При наведении курсора мыши на число - период времени, за который выпало указанное количество осадков.
R24 - Количество осадков - Количество выпавших осадков за 24 часа, мм.
S - Снежный покров - Высота снежного покрова, см. При наведении курсора мыши на число - состояние снежного покрова и степень покрытия местности в баллах.